Погода в Хайыре

Россия / Республика Саха (Якутия)     70°48′46″N   133°29′52″E
темп.,
°C
ветер,
м/с
пор.,
м/с
влажн.,
%
обл.,
%
осадки,
мм/ч
давл.,
гПа
погр.,
м
27 февраля, сб
сб2701:00−35ююв119121 0.0 103319
04:00−33ююв118755 0.0 103219
07:00−32всв1187100 0.0 103219
10:00−33вюв1187100 0.0 103219
13:00−33ю118650 0.0 103119
16:00−33ююз118661 0.0 103019
19:00−35ююв128863 0.0 103019
22:00−34ююв128668 0.0 103019
28 февраля, вс
вс2801:00−34ююв118693 0.0 102919
04:00−35ююв118781 0.0 102719
07:00−36юв11891 0.0 102719
10:00−36вюв00890 0.0 102619
13:00−34с00870 0.0 102619
16:00−35ссв11900 0.0 102519
19:00−37ссв11940 0.0 102619
22:00−38с11975 0.0 102619
1 марта, пн
пн101:00−38сз1110057 0.0 102619
04:00−39з1110073 0.0 102619
07:00−39юз1110090 0.0 102618
10:00−39юз129980 0.0 102618
13:00−37юз119569 0.0 102619
16:00−38юз119568 0.0 102519
19:00−40юз119925 0.0 102718
22:00−40юз119822 0.0 102718
2 марта, вт
вт201:00−41юз119933 0.0 102718
04:00−41юз1110041 0.0 102718
07:00−41ююз129846 0.0 102818
10:00−41ююз119845 0.0 102818
13:00−38ююз119227 0.0 102818
16:00−38ююв019244 0.0 102918
19:00−40юв019479 0.0 102918
22:00−40всв119668 0.0 103018
3 марта, ср
ср301:00−41св019613 0.0 103018
04:00−41с009714 0.0 103018
07:00−41ссв119822 0.0 102918
10:00−40с229729 0.0 102918
13:00−37ссв229674 0.0 102857
16:00−36ссв349683 0.0 102788
19:00−38ссв349799 0.0 102728
22:00−38с3399100 0.0 102622